Location: ??
(35.1715°N, 139.6450°E)
Time: 17:13:45
(UTC+00:00)

Cosmos 2322 Rocket - Pass Details

Date: 05 August 2024
Orbit: 831 x 851 km, 71.0° (Epoch: 19 September)

Event Time Altitude Azimuth Distance (km) Brightness Sun altitude
Exits shadow 17:30:23 15° 301° (WNW) 2,119 4.1 -25.3°
Maximum altitude 17:30:45 15° 306° (NW) 2,115 4.2 -25.3°
Drops below altitude 10° 17:34:00 10° 341° (NNW) 2,474 4.9 -24.8°
Sets 17:37:36 0° 4° (N) 3,417 6.1 -24.3°
